Location: *
(28.3744°N, 81.5492°W)
Time: 03:21:16
(UTC+00:00)

Cosmos 1605 Rocket - Pass Details

Date: 15 June 2025
Orbit: 943 x 1006 km, 82.9° (Epoch: 11 July)

Event Time Altitude Azimuth Distance (km) Brightness Sun altitude
Rises 01:33:28 0° 2° (N) 3,627 7.5 -13.7°
Reaches altitude 10° 01:36:04 10° 8° (N) 2,673 6.7 -14.1°
Maximum altitude 01:41:57 49° 82° (E) 1,201 4.2 -15.2°
Enters shadow 01:45:44 21° 148° (SSE) 1,955 5.0 -15.8°
